Showing default

INTELSAT 11 (PAS 11), 32253

Orbit data source: Space-Track

INTELSAT 11 (PAS 11), 32253 is a payload satellite owned by Intelsat Ltd (US) (US) in GEO that was launched on Fri, 05 Oct 2007 UTC via an ARIANE 5GS launch vehicle from the French Guiana (FRGUI). Payload-class satellites include a variety of spacecraft equipped with specific instruments for various scientific and technological missions. These include communications satellites like Starlink; space stations such as the ISS; scientific satellites like the Hubble; Earth observation satellites from companies like Planet Labs, Umbra, and HawkEye 360; GPS; miniature CubeSats for education and research; and military/defense satellites.

Loading next visibility...
Identifier
32253, 2007-044B
Orbit
GEO
Last TLE update
19 hours ago
Origin
Manufacturer
OSC
Mission
On reserve Commercial Communications
Bus & Motor
OSC STAR 2.4, BT-4
Mass
2,450 kg wet, 1,145 kg dry
Launch date (UTC)
2007-10-05 (18 years ago)
Launch vehicle
ARIANE 5GS
Launch site
French Guiana (FRGUI)
Object type
Payload
Rocket body
Debris
Shape & HBR
Box + 2 Pan, Unknown HBR
Radar Cross Section
24.482 m², Large (>1 m²)

Expand to show TLE details & history

TLE from 19 hours ago
0 INTELSAT 11 (PAS 11)
1 32253U 07044B   25181.59456522  .00000073  00000-0  00000-0 0  9995
2 32253   2.6487  83.0650 0003915  75.5045 206.3103  0.99048017 64968
Epoch: 2025-06-30T14:16Z
TLE epoch observation values (Epoch: 2025-06-30T14:16:10.435Z)
Latitude
-2.60288°
Longitude
-128.05637°
Altitude
36,147.928 km
Speed
3.061 km/s
True Right ascension
00h 19m 33s
True Declination
-2° 36' 01"
Sunlit
Object was in daylight at epoch
Visualization orbit readout
Latitude
-1.2403°
Longitude
157.49987°
Altitude
36,143.926 km
Speed
3.061 km/s
Apparent Right ascension
19h 08m 40s
Apparent Declination
-7° 26' 42"
Sunlit
Object is in daylight
Visualization observer readout
Local Sidereal Time
21:07:35
Azimuth
217.025° SW
Elevation
35.26°
Doppler factor
1
Orbital elements
Apogee altitude
36,150.891 km
Perigee altitude
36,117.604 km
Semi-major axis
42,512.385 km
Eccentricity
0.00039
Inclination
2.6487°
RAAN
83.065°
Arg. of periapsis
75.5045°
True anomaly
Unknown
Mean anomaly
206.3103°
Eccentric anomaly
Unknown
Mean motion
0.24761 °/min
Orbital period
1,453.89 mins
BSTAR
0
Loading historical data...
32253 neighbors
Loading maneuver chart data...
Loading SW <> Apogee altitude chart data...
Loading historical data...
Loading historical data...
Loading historical data...
Loading historical data...
Loading historical data...
Loading historical data...
Loading historical data...
Other satellites on launch #44 in the year 2007 (2007-10-05 UTC)

INTELSAT 11 (PAS 11) Visibility forecast

Observer location: undefined°, undefined°

Span
Click to sort rows by Start time (UTC) header in descending order
Start Az.
Max El. time (UTC)
Max El. Az.
Max El.
End time (UTC)
End Az.
1440 mins2025-07-01 09:29:17.783Z217.014° SW2025-07-02 01:18:17.783Z223.126° SW31.256°2025-07-02 09:29:17.783Z222.216° SW
|